Time,TemperatureF,DewpointF,PressureIn,WindDirection,WindDirectionDegrees,WindSpeedMPH,WindSpeedGustMPH,Humidity,HourlyPrecipIn,Conditions,Clouds,dailyrainin,SoftwareType,DateUTC
2013-02-11 00:00:00,65.0,60.0,30.17,ESE,123,5.0,9.0,84,0.00,,,0.00,Weather View 32 v70,2013-02-11 05:00:00,
2013-02-11 00:05:00,65.0,60.0,30.17,SE,137,4.0,9.0,84,0.00,,,0.00,Weather View 32 v70,2013-02-11 05:05:00,
2013-02-11 00:10:00,65.0,60.4,30.16,SE,137,7.0,9.0,85,0.00,,,0.00,Weather View 32 v70,2013-02-11 05:10:00,
2013-02-11 00:15:00,65.0,60.4,30.16,SE,127,8.0,9.0,85,0.00,,,0.00,Weather View 32 v70,2013-02-11 05:15:00,
2013-02-11 00:20:00,65.0,60.4,30.16,ESE,123,4.0,9.0,85,0.00,,,0.00,Weather View 32 v70,2013-02-11 05:20:00,
2013-02-11 00:25:00,64.0,59.4,30.16,SSE,150,5.0,9.0,85,0.00,,,0.00,Weather View 32 v70,2013-02-11 05:25:00,
2013-02-11 00:30:00,64.0,59.4,30.16,SSE,152,7.0,10.0,85,0.00,,,0.00,Weather View 32 v70,2013-02-11 05:30:00,
2013-02-11 00:35:00,64.0,59.4,30.16,SSE,154,4.0,11.0,85,0.00,,,0.00,Weather View 32 v70,2013-02-11 05:35:00,
2013-02-11 00:40:00,64.0,59.7,30.16,SSE,150,6.0,11.0,86,0.00,,,0.00,Weather View 32 v70,2013-02-11 05:40:00,
2013-02-11 00:45:00,64.0,59.7,30.16,SSE,161,4.0,12.0,86,0.00,,,0.00,Weather View 32 v70,2013-02-11 05:45:00,
2013-02-11 00:50:00,64.0,59.7,30.16,SE,143,6.0,12.0,86,0.00,,,0.00,Weather View 32 v70,2013-02-11 05:50:00,
2013-02-11 00:55:00,64.0,59.7,30.16,ESE,109,3.0,12.0,86,0.00,,,0.00,Weather View 32 v70,2013-02-11 05:55:00,
2013-02-11 01:00:00,64.0,59.7,30.16,ESE,115,3.0,12.0,86,0.00,,,0.00,Weather View 32 v70,2013-02-11 06:00:00,
2013-02-11 01:05:00,64.0,59.7,30.16,SSE,156,10.0,12.0,86,0.00,,,0.00,Weather View 32 v70,2013-02-11 06:05:00,
2013-02-11 01:10:00,64.0,59.7,30.16,ESE,121,3.0,12.0,86,0.00,,,0.00,Weather View 32 v70,2013-02-11 06:10:00,
2013-02-11 01:15:00,64.0,59.7,30.16,SE,136,5.0,12.0,86,0.00,,,0.00,Weather View 32 v70,2013-02-11 06:15:00,
2013-02-11 01:20:00,64.0,60.0,30.16,SE,145,5.0,12.0,87,0.00,,,0.00,Weather View 32 v70,2013-02-11 06:20:00,
2013-02-11 01:25:00,64.0,60.0,30.17,SE,139,3.0,12.0,87,0.00,,,0.00,Weather View 32 v70,2013-02-11 06:25:00,
2013-02-11 01:30:00,64.0,60.0,30.16,SE,142,6.0,12.0,87,0.00,,,0.00,Weather View 32 v70,2013-02-11 06:30:00,
2013-02-11 01:35:00,64.0,60.0,30.17,SE,137,6.0,12.0,87,0.00,,,0.00,Weather View 32 v70,2013-02-11 06:35:00,
2013-02-11 01:40:00,64.0,60.0,30.17,SE,127,5.0,12.0,87,0.00,,,0.00,Weather View 32 v70,2013-02-11 06:40:00,
2013-02-11 01:45:00,64.0,60.0,30.16,SE,146,5.0,12.0,87,0.00,,,0.00,Weather View 32 v70,2013-02-11 06:45:00,
2013-02-11 01:50:00,64.0,60.0,30.16,SSE,159,2.0,12.0,87,0.00,,,0.00,Weather View 32 v70,2013-02-11 06:50:00,
2013-02-11 01:55:00,64.0,60.0,30.16,SE,145,5.0,11.0,87,0.00,,,0.00,Weather View 32 v70,2013-02-11 06:55:00,
2013-02-11 02:00:00,64.0,60.4,30.16,SE,144,7.0,11.0,88,0.00,,,0.00,Weather View 32 v70,2013-02-11 07:00:00,
2013-02-11 02:05:00,64.0,60.4,30.15,South,173,5.0,10.0,88,0.00,,,0.00,Weather View 32 v70,2013-02-11 07:05:00,
2013-02-11 02:10:00,64.0,60.4,30.15,ESE,123,5.0,10.0,88,0.00,,,0.00,Weather View 32 v70,2013-02-11 07:10:00,
2013-02-11 02:15:00,64.0,60.4,30.15,East,94,6.0,10.0,88,0.00,,,0.00,Weather View 32 v70,2013-02-11 07:15:00,
2013-02-11 02:20:00,63.0,59.4,30.15,SE,144,2.0,10.0,88,0.00,,,0.00,Weather View 32 v70,2013-02-11 07:20:00,
2013-02-11 02:25:00,63.0,59.4,30.15,SSE,160,1.0,10.0,88,0.00,,,0.00,Weather View 32 v70,2013-02-11 07:25:00,
2013-02-11 02:30:00,63.0,59.4,30.15,SSE,153,1.0,9.0,88,0.00,,,0.00,Weather View 32 v70,2013-02-11 07:30:00,
2013-02-11 02:35:00,63.0,59.4,30.15,SSE,148,3.0,9.0,88,0.00,,,0.00,Weather View 32 v70,2013-02-11 07:35:00,
2013-02-11 02:40:00,63.0,59.7,30.14,SSE,162,3.0,9.0,89,0.00,,,0.00,Weather View 32 v70,2013-02-11 07:40:00,
2013-02-11 02:45:00,63.0,59.7,30.15,SE,141,3.0,9.0,89,0.00,,,0.00,Weather View 32 v70,2013-02-11 07:45:00,
2013-02-11 02:50:00,63.0,59.7,30.14,ESE,121,2.0,9.0,89,0.00,,,0.00,Weather View 32 v70,2013-02-11 07:50:00,
2013-02-11 02:55:00,63.0,59.7,30.14,SE,134,1.0,9.0,89,0.00,,,0.00,Weather View 32 v70,2013-02-11 07:55:00,
2013-02-11 03:00:00,63.0,59.7,30.14,SSE,162,4.0,9.0,89,0.00,,,0.00,Weather View 32 v70,2013-02-11 08:00:00,
2013-02-11 03:05:00,63.0,59.7,30.14,South,179,2.0,9.0,89,0.00,,,0.00,Weather View 32 v70,2013-02-11 08:05:00,
2013-02-11 03:10:00,63.0,59.7,30.14,SSE,151,6.0,9.0,89,0.00,,,0.00,Weather View 32 v70,2013-02-11 08:10:00,
2013-02-11 03:15:00,63.0,59.7,30.14,SSE,152,3.0,8.0,89,0.00,,,0.00,Weather View 32 v70,2013-02-11 08:15:00,
2013-02-11 03:20:00,63.0,59.7,30.14,SE,130,2.0,8.0,89,0.00,,,0.00,Weather View 32 v70,2013-02-11 08:20:00,
2013-02-11 03:25:00,63.0,59.7,30.13,SE,145,6.0,8.0,89,0.00,,,0.00,Weather View 32 v70,2013-02-11 08:25:00,
2013-02-11 03:30:00,63.0,59.7,30.13,SE,138,3.0,8.0,89,0.00,,,0.00,Weather View 32 v70,2013-02-11 08:30:00,
2013-02-11 03:35:00,63.0,59.7,30.13,SE,139,1.0,8.0,89,0.00,,,0.00,Weather View 32 v70,2013-02-11 08:35:00,
2013-02-11 03:40:00,63.0,59.7,30.13,SE,144,6.0,8.0,89,0.00,,,0.00,Weather View 32 v70,2013-02-11 08:40:00,
2013-02-11 03:45:00,63.0,59.7,30.13,SE,144,6.0,8.0,89,0.00,,,0.00,Weather View 32 v70,2013-02-11 08:45:00,
2013-02-11 03:50:00,63.0,59.7,30.13,SE,144,6.0,8.0,89,0.00,,,0.00,Weather View 32 v70,2013-02-11 08:50:00,
2013-02-11 03:55:00,0.0,0.0,30.13,North,0,255.0,255.0,0,0.00,,,0.00,Weather View 32 v70,2013-02-11 08:55:00,
2013-02-11 04:00:00,0.0,0.0,30.13,North,0,255.0,255.0,0,0.00,,,0.00,Weather View 32 v70,2013-02-11 09:00:00,
2013-02-11 04:05:00,0.0,0.0,30.13,North,0,255.0,255.0,0,0.00,,,0.00,Weather View 32 v70,2013-02-11 09:05:00,
2013-02-11 04:10:00,62.0,58.7,30.13,SE,136,4.0,255.0,89,0.00,,,0.00,Weather View 32 v70,2013-02-11 09:10:00,
2013-02-11 04:15:00,62.0,58.7,30.13,SSE,157,5.0,255.0,89,0.00,,,0.00,Weather View 32 v70,2013-02-11 09:15:00,
2013-02-11 04:20:00,62.0,58.7,30.13,SSE,147,4.0,255.0,89,0.00,,,0.00,Weather View 32 v70,2013-02-11 09:20:00,
2013-02-11 04:25:00,62.0,58.7,30.13,SSE,160,2.0,255.0,89,0.00,,,0.00,Weather View 32 v70,2013-02-11 09:25:00,
2013-02-11 04:30:00,62.0,58.7,30.13,SSE,153,3.0,255.0,89,0.00,,,0.00,Weather View 32 v70,2013-02-11 09:30:00,
2013-02-11 04:35:00,62.0,58.7,30.13,SE,144,4.0,255.0,89,0.00,,,0.00,Weather View 32 v70,2013-02-11 09:35:00,
2013-02-11 04:40:00,62.0,58.7,30.13,SSE,150,5.0,255.0,89,0.00,,,0.00,Weather View 32 v70,2013-02-11 09:40:00,
2013-02-11 04:45:00,62.0,58.7,30.13,SE,136,4.0,255.0,89,0.00,,,0.00,Weather View 32 v70,2013-02-11 09:45:00,
2013-02-11 04:51:00,62.0,58.7,30.13,SSE,165,3.0,255.0,89,0.00,,,0.00,Weather View 32 v70,2013-02-11 09:51:00,
2013-02-11 04:56:00,62.0,59.0,30.13,SSE,150,5.0,255.0,90,0.00,,,0.00,Weather View 32 v70,2013-02-11 09:56:00,
2013-02-11 05:01:00,62.0,59.0,30.13,SE,133,2.0,255.0,90,0.00,,,0.00,Weather View 32 v70,2013-02-11 10:01:00,
2013-02-11 05:06:00,62.0,59.0,30.13,ESE,122,4.0,255.0,90,0.00,,,0.00,Weather View 32 v70,2013-02-11 10:06:00,
2013-02-11 05:11:00,62.0,59.0,30.13,SE,138,3.0,8.0,90,0.00,,,0.00,Weather View 32 v70,2013-02-11 10:11:00,
2013-02-11 05:16:00,62.0,59.0,30.13,ESE,123,1.0,8.0,90,0.00,,,0.00,Weather View 32 v70,2013-02-11 10:16:00,
2013-02-11 05:21:00,62.0,59.0,30.13,SE,146,3.0,7.0,90,0.00,,,0.00,Weather View 32 v70,2013-02-11 10:21:00,
2013-02-11 05:26:00,62.0,59.0,30.14,SSE,149,1.0,7.0,90,0.00,,,0.00,Weather View 32 v70,2013-02-11 10:26:00,
2013-02-11 05:31:00,62.0,59.0,30.14,SE,132,3.0,7.0,90,0.00,,,0.00,Weather View 32 v70,2013-02-11 10:31:00,
2013-02-11 05:36:00,62.0,59.0,30.14,ESE,122,3.0,7.0,90,0.00,,,0.00,Weather View 32 v70,2013-02-11 10:36:00,
2013-02-11 05:41:00,61.0,58.0,30.14,ESE,113,4.0,7.0,90,0.00,,,0.00,Weather View 32 v70,2013-02-11 10:41:00,
2013-02-11 05:46:00,61.0,58.0,30.14,ESE,121,5.0,7.0,90,0.00,,,0.00,Weather View 32 v70,2013-02-11 10:46:00,
2013-02-11 05:51:00,61.0,58.0,30.15,SE,127,2.0,7.0,90,0.00,,,0.00,Weather View 32 v70,2013-02-11 10:51:00,
2013-02-11 05:56:00,61.0,58.0,30.15,SE,136,2.0,7.0,90,0.00,,,0.00,Weather View 32 v70,2013-02-11 10:56:00,
2013-02-11 06:01:00,61.0,58.0,30.15,SE,133,4.0,7.0,90,0.00,,,0.00,Weather View 32 v70,2013-02-11 11:01:00,
2013-02-11 06:06:00,61.0,58.0,30.15,SE,142,4.0,9.0,90,0.00,,,0.00,Weather View 32 v70,2013-02-11 11:06:00,
2013-02-11 06:11:00,61.0,58.0,30.16,SE,146,3.0,9.0,90,0.00,,,0.00,Weather View 32 v70,2013-02-11 11:11:00,
2013-02-11 06:16:00,61.0,58.0,30.16,SE,142,6.0,9.0,90,0.00,,,0.00,Weather View 32 v70,2013-02-11 11:16:00,
2013-02-11 06:21:00,61.0,58.0,30.16,SE,132,3.0,9.0,90,0.00,,,0.00,Weather View 32 v70,2013-02-11 11:21:00,
2013-02-11 06:26:00,62.0,59.0,30.16,ESE,123,2.0,9.0,90,0.00,,,0.00,Weather View 32 v70,2013-02-11 11:26:00,
2013-02-11 06:31:00,61.0,58.0,30.16,SE,134,3.0,9.0,90,0.00,,,0.00,Weather View 32 v70,2013-02-11 11:31:00,
2013-02-11 06:36:00,61.0,58.0,30.17,SE,134,3.0,9.0,90,0.00,,,0.00,Weather View 32 v70,2013-02-11 11:36:00,
2013-02-11 06:41:00,61.0,58.0,30.17,SE,128,2.0,9.0,90,0.00,,,0.00,Weather View 32 v70,2013-02-11 11:41:00,
2013-02-11 06:46:00,61.0,58.0,30.17,SE,127,4.0,9.0,90,0.00,,,0.00,Weather View 32 v70,2013-02-11 11:46:00,
2013-02-11 06:51:00,61.0,58.0,30.17,SE,133,2.0,9.0,90,0.00,,,0.00,Weather View 32 v70,2013-02-11 11:51:00,
2013-02-11 06:56:00,61.0,58.0,30.17,SE,130,4.0,9.0,90,0.00,,,0.00,Weather View 32 v70,2013-02-11 11:56:00,
2013-02-11 07:01:00,61.0,58.0,30.17,SE,132,3.0,9.0,90,0.00,,,0.00,Weather View 32 v70,2013-02-11 12:01:00,
2013-02-11 07:06:00,61.0,58.0,30.17,SE,136,6.0,8.0,90,0.00,,,0.00,Weather View 32 v70,2013-02-11 12:06:00,
2013-02-11 07:11:00,61.0,58.0,30.17,SE,142,3.0,8.0,90,0.00,,,0.00,Weather View 32 v70,2013-02-11 12:11:00,
2013-02-11 07:16:00,61.0,58.0,30.17,SE,134,5.0,8.0,90,0.00,,,0.00,Weather View 32 v70,2013-02-11 12:16:00,
2013-02-11 07:21:00,61.0,58.0,30.17,SE,128,4.0,8.0,90,0.00,,,0.00,Weather View 32 v70,2013-02-11 12:21:00,
2013-02-11 07:26:00,61.0,58.0,30.17,SE,133,4.0,10.0,90,0.00,,,0.00,Weather View 32 v70,2013-02-11 12:26:00,
2013-02-11 07:31:00,61.0,58.0,30.17,SE,132,2.0,10.0,90,0.00,,,0.00,Weather View 32 v70,2013-02-11 12:31:00,
2013-02-11 07:36:00,61.0,58.0,30.17,SE,133,3.0,11.0,90,0.00,,,0.00,Weather View 32 v70,2013-02-11 12:36:00,
2013-02-11 07:41:00,61.0,58.0,30.17,SE,131,5.0,11.0,90,0.00,,,0.00,Weather View 32 v70,2013-02-11 12:41:00,
2013-02-11 07:46:00,61.0,58.0,30.18,SE,143,4.0,11.0,90,0.00,,,0.00,Weather View 32 v70,2013-02-11 12:46:00,
2013-02-11 07:51:00,62.0,59.0,30.18,SE,140,4.0,11.0,90,0.00,,,0.00,Weather View 32 v70,2013-02-11 12:51:00,
2013-02-11 07:56:00,62.0,59.0,30.18,SSE,154,3.0,11.0,90,0.00,,,0.00,Weather View 32 v70,2013-02-11 12:56:00,
2013-02-11 08:01:00,62.0,59.0,30.18,SE,131,4.0,11.0,90,0.00,,,0.00,Weather View 32 v70,2013-02-11 13:01:00,
2013-02-11 08:06:00,62.0,59.0,30.19,SSE,148,7.0,11.0,90,0.00,,,0.00,Weather View 32 v70,2013-02-11 13:06:00,
2013-02-11 08:11:00,62.0,59.0,30.19,SE,131,6.0,11.0,90,0.00,,,0.00,Weather View 32 v70,2013-02-11 13:11:00,
2013-02-11 08:16:00,63.0,60.0,30.19,SE,142,5.0,11.0,90,0.00,,,0.00,Weather View 32 v70,2013-02-11 13:16:00,
2013-02-11 08:21:00,63.0,60.0,30.19,SE,142,6.0,11.0,90,0.00,,,0.00,Weather View 32 v70,2013-02-11 13:21:00,
2013-02-11 08:26:00,64.0,61.0,30.19,SE,146,5.0,11.0,90,0.00,,,0.00,Weather View 32 v70,2013-02-11 13:26:00,
2013-02-11 08:31:00,64.0,60.7,30.19,SE,132,6.0,11.0,89,0.00,,,0.00,Weather View 32 v70,2013-02-11 13:31:00,
2013-02-11 08:36:00,65.0,61.7,30.19,SE,140,4.0,11.0,89,0.00,,,0.00,Weather View 32 v70,2013-02-11 13:36:00,
2013-02-11 08:41:00,66.0,62.3,30.19,SE,140,2.0,11.0,88,0.00,,,0.00,Weather View 32 v70,2013-02-11 13:41:00,
2013-02-11 08:46:00,66.0,62.0,30.19,ESE,115,9.0,13.0,87,0.00,,,0.00,Weather View 32 v70,2013-02-11 13:46:00,
2013-02-11 08:51:00,67.0,62.7,30.19,SSE,167,7.0,13.0,86,0.00,,,0.00,Weather View 32 v70,2013-02-11 13:51:00,
2013-02-11 08:56:00,68.0,63.6,30.19,SSE,155,8.0,13.0,86,0.00,,,0.00,Weather View 32 v70,2013-02-11 13:56:00,
2013-02-11 09:01:00,68.0,63.3,30.18,SE,146,8.0,13.0,85,0.00,,,0.00,Weather View 32 v70,2013-02-11 14:01:00,
2013-02-11 09:06:00,68.0,63.3,30.18,SE,138,3.0,14.0,85,0.00,,,0.00,Weather View 32 v70,2013-02-11 14:06:00,
2013-02-11 09:11:00,69.0,63.6,30.18,SSE,147,5.0,14.0,83,0.00,,,0.00,Weather View 32 v70,2013-02-11 14:11:00,
2013-02-11 09:16:00,70.0,64.6,30.17,South,180,5.0,14.0,83,0.00,,,0.00,Weather View 32 v70,2013-02-11 14:16:00,
2013-02-11 09:21:00,70.0,64.2,30.18,East,80,16.0,16.0,82,0.00,,,0.00,Weather View 32 v70,2013-02-11 14:21:00,
2013-02-11 09:26:00,71.0,65.2,30.18,SSE,148,2.0,16.0,82,0.00,,,0.00,Weather View 32 v70,2013-02-11 14:26:00,
2013-02-11 09:31:00,71.0,64.9,30.17,South,178,7.0,16.0,81,0.00,,,0.00,Weather View 32 v70,2013-02-11 14:31:00,
2013-02-11 09:36:00,72.0,65.5,30.15,SSE,159,4.0,16.0,80,0.00,,,0.00,Weather View 32 v70,2013-02-11 14:36:00,
2013-02-11 09:41:00,72.0,65.5,30.15,SSE,157,11.0,16.0,80,0.00,,,0.00,Weather View 32 v70,2013-02-11 14:41:00,
2013-02-11 09:46:00,72.0,65.1,30.18,SE,126,4.0,16.0,79,0.00,,,0.00,Weather View 32 v70,2013-02-11 14:46:00,
2013-02-11 09:51:00,73.0,65.7,30.18,SE,136,12.0,16.0,78,0.00,,,0.00,Weather View 32 v70,2013-02-11 14:51:00,
2013-02-11 09:56:00,73.0,65.3,30.18,South,176,7.0,16.0,77,0.00,,,0.00,Weather View 32 v70,2013-02-11 14:56:00,
2013-02-11 10:01:00,74.0,65.9,30.18,South,173,1.0,16.0,76,0.00,,,0.00,Weather View 32 v70,2013-02-11 15:01:00,
2013-02-11 10:06:00,74.0,65.5,30.18,SE,144,9.0,16.0,75,0.00,,,0.00,Weather View 32 v70,2013-02-11 15:06:00,
2013-02-11 10:11:00,74.0,65.5,30.18,SSW,196,5.0,16.0,75,0.00,,,0.00,Weather View 32 v70,2013-02-11 15:11:00,
2013-02-11 10:16:00,74.0,65.2,30.18,South,177,1.0,16.0,74,0.00,,,0.00,Weather View 32 v70,2013-02-11 15:16:00,
2013-02-11 10:21:00,75.0,66.1,30.17,South,187,2.0,16.0,74,0.00,,,0.00,Weather View 32 v70,2013-02-11 15:21:00,
2013-02-11 10:26:00,76.0,66.7,30.17,South,171,2.0,16.0,73,0.00,,,0.00,Weather View 32 v70,2013-02-11 15:26:00,
2013-02-11 10:31:00,76.0,66.3,30.18,South,176,3.0,16.0,72,0.00,,,0.00,Weather View 32 v70,2013-02-11 15:31:00,
2013-02-11 10:36:00,76.0,66.3,30.17,SSE,163,4.0,16.0,72,0.00,,,0.00,Weather View 32 v70,2013-02-11 15:36:00,
2013-02-11 10:41:00,76.0,65.9,30.17,South,170,1.0,16.0,71,0.00,,,0.00,Weather View 32 v70,2013-02-11 15:41:00,
2013-02-11 10:46:00,77.0,66.4,30.17,SE,126,6.0,14.0,70,0.00,,,0.00,Weather View 32 v70,2013-02-11 15:46:00,
2013-02-11 10:51:00,77.0,66.0,30.17,SSE,158,9.0,14.0,69,0.00,,,0.00,Weather View 32 v70,2013-02-11 15:51:00,
2013-02-11 10:56:00,77.0,65.6,30.17,SE,142,3.0,14.0,68,0.00,,,0.00,Weather View 32 v70,2013-02-11 15:56:00,
2013-02-11 11:01:00,78.0,66.5,30.17,South,169,9.0,14.0,68,0.00,,,0.00,Weather View 32 v70,2013-02-11 16:01:00,
2013-02-11 11:06:00,78.0,66.1,30.17,SE,144,7.0,14.0,67,0.00,,,0.00,Weather View 32 v70,2013-02-11 16:06:00,
2013-02-11 11:11:00,78.0,66.1,30.17,SSW,194,5.0,15.0,67,0.00,,,0.00,Weather View 32 v70,2013-02-11 16:11:00,
2013-02-11 11:16:00,78.0,66.1,30.17,SSE,161,4.0,15.0,67,0.00,,,0.00,Weather View 32 v70,2013-02-11 16:16:00,
2013-02-11 11:21:00,79.0,67.1,30.16,South,188,4.0,15.0,67,0.00,,,0.00,Weather View 32 v70,2013-02-11 16:21:00,
2013-02-11 11:26:00,79.0,66.2,30.17,SW,218,4.0,15.0,65,0.00,,,0.00,Weather View 32 v70,2013-02-11 16:26:00,
2013-02-11 11:31:00,79.0,66.6,30.16,SSE,149,5.0,15.0,66,0.00,,,0.00,Weather View 32 v70,2013-02-11 16:31:00,
2013-02-11 11:36:00,79.0,66.6,30.16,South,172,6.0,15.0,66,0.00,,,0.00,Weather View 32 v70,2013-02-11 16:36:00,
2013-02-11 11:41:00,79.0,65.7,30.16,SSW,206,7.0,15.0,64,0.00,,,0.00,Weather View 32 v70,2013-02-11 16:41:00,
2013-02-11 11:46:00,79.0,65.3,30.16,SSW,209,6.0,15.0,63,0.00,,,0.00,Weather View 32 v70,2013-02-11 16:46:00,
2013-02-11 11:51:00,80.0,66.2,30.15,SSE,162,5.0,15.0,63,0.00,,,0.00,Weather View 32 v70,2013-02-11 16:51:00,
2013-02-11 11:56:00,80.0,66.2,30.15,South,188,3.0,15.0,63,0.00,,,0.00,Weather View 32 v70,2013-02-11 16:56:00,
2013-02-11 12:01:00,80.0,65.8,30.15,South,182,2.0,15.0,62,0.00,,,0.00,Weather View 32 v70,2013-02-11 17:01:00,
2013-02-11 12:06:00,81.0,66.2,30.15,SW,224,3.0,15.0,61,0.00,,,0.00,Weather View 32 v70,2013-02-11 17:06:00,
2013-02-11 12:11:00,80.0,65.8,30.15,SSE,155,8.0,14.0,62,0.00,,,0.00,Weather View 32 v70,2013-02-11 17:11:00,
2013-02-11 12:16:00,81.0,66.7,30.15,SSW,197,3.0,14.0,62,0.00,,,0.00,Weather View 32 v70,2013-02-11 17:16:00,
2013-02-11 12:21:00,81.0,66.7,30.15,SSE,166,6.0,14.0,62,0.00,,,0.00,Weather View 32 v70,2013-02-11 17:21:00,
2013-02-11 12:26:00,81.0,66.2,30.14,South,182,6.0,14.0,61,0.00,,,0.00,Weather View 32 v70,2013-02-11 17:26:00,
2013-02-11 12:31:00,81.0,65.8,30.14,SSE,167,6.0,14.0,60,0.00,,,0.00,Weather View 32 v70,2013-02-11 17:31:00,
2013-02-11 12:36:00,81.0,65.8,30.14,SSW,205,3.0,14.0,60,0.00,,,0.00,Weather View 32 v70,2013-02-11 17:36:00,
2013-02-11 12:41:00,81.0,66.2,30.14,South,188,5.0,14.0,61,0.00,,,0.00,Weather View 32 v70,2013-02-11 17:41:00,
2013-02-11 12:46:00,82.0,66.7,30.13,South,188,5.0,12.0,60,0.00,,,0.00,Weather View 32 v70,2013-02-11 17:46:00,
2013-02-11 12:51:00,81.0,66.2,30.13,WSW,256,5.0,13.0,61,0.00,,,0.00,Weather View 32 v70,2013-02-11 17:51:00,
2013-02-11 12:56:00,80.0,64.8,30.13,South,190,2.0,13.0,60,0.00,,,0.00,Weather View 32 v70,2013-02-11 17:56:00,
2013-02-11 13:01:00,80.0,65.3,30.12,SW,236,4.0,13.0,61,0.00,,,0.00,Weather View 32 v70,2013-02-11 18:01:00,
2013-02-11 13:06:00,80.0,65.8,30.12,SW,230,9.0,13.0,62,0.00,,,0.00,Weather View 32 v70,2013-02-11 18:06:00,
2013-02-11 13:11:00,81.0,66.7,30.12,SW,225,6.0,13.0,62,0.00,,,0.00,Weather View 32 v70,2013-02-11 18:11:00,
2013-02-11 13:16:00,80.0,64.8,30.11,South,189,5.0,13.0,60,0.00,,,0.00,Weather View 32 v70,2013-02-11 18:16:00,
2013-02-11 13:21:00,80.0,65.3,30.11,SSW,211,5.0,13.0,61,0.00,,,0.00,Weather View 32 v70,2013-02-11 18:21:00,
2013-02-11 13:26:00,80.0,65.3,30.11,SSW,193,7.0,13.0,61,0.00,,,0.00,Weather View 32 v70,2013-02-11 18:26:00,
2013-02-11 13:31:00,80.0,65.8,30.11,WNW,297,2.0,13.0,62,0.00,,,0.00,Weather View 32 v70,2013-02-11 18:31:00,
2013-02-11 13:36:00,79.0,67.1,30.11,WNW,288,4.0,13.0,67,0.00,,,0.00,Weather View 32 v70,2013-02-11 18:36:00,
2013-02-11 13:41:00,78.0,67.0,30.10,WSW,243,5.0,13.0,69,0.00,,,0.00,Weather View 32 v70,2013-02-11 18:41:00,
2013-02-11 13:46:00,77.0,67.2,30.10,WSW,248,7.0,13.0,72,0.00,,,0.00,Weather View 32 v70,2013-02-11 18:46:00,
2013-02-11 13:51:00,76.0,67.5,30.10,WNW,291,3.0,11.0,75,0.00,,,0.00,Weather View 32 v70,2013-02-11 18:51:00,
2013-02-11 13:56:00,75.0,67.3,30.10,NW,307,4.0,11.0,77,0.00,,,0.00,Weather View 32 v70,2013-02-11 18:56:00,
2013-02-11 14:01:00,75.0,67.3,30.10,WSW,251,5.0,12.0,77,0.00,,,0.00,Weather View 32 v70,2013-02-11 19:01:00,
2013-02-11 14:06:00,76.0,68.2,30.09,WNW,284,8.0,12.0,77,0.00,,,0.00,Weather View 32 v70,2013-02-11 19:06:00,
2013-02-11 14:11:00,76.0,67.9,30.09,WSW,248,4.0,12.0,76,0.00,,,0.00,Weather View 32 v70,2013-02-11 19:11:00,
2013-02-11 14:16:00,76.0,68.2,30.09,WSW,254,7.0,12.0,77,0.00,,,0.00,Weather View 32 v70,2013-02-11 19:16:00,
2013-02-11 14:21:00,76.0,67.9,30.09,West,260,11.0,14.0,76,0.00,,,0.00,Weather View 32 v70,2013-02-11 19:21:00,
2013-02-11 14:26:00,76.0,67.9,30.09,SW,234,11.0,14.0,76,0.00,,,0.00,Weather View 32 v70,2013-02-11 19:26:00,
2013-02-11 14:31:00,75.0,67.6,30.09,WNW,300,8.0,14.0,78,0.00,,,0.00,Weather View 32 v70,2013-02-11 19:31:00,
2013-02-11 14:36:00,75.0,68.0,30.08,WSW,241,7.0,14.0,79,0.00,,,0.00,Weather View 32 v70,2013-02-11 19:36:00,
2013-02-11 14:41:00,76.0,67.9,30.09,WSW,254,9.0,14.0,76,0.00,,,0.00,Weather View 32 v70,2013-02-11 19:41:00,
2013-02-11 14:46:00,76.0,67.9,30.08,WSW,258,9.0,14.0,76,0.00,,,0.00,Weather View 32 v70,2013-02-11 19:46:00,
2013-02-11 14:51:00,76.0,67.9,30.08,West,260,5.0,14.0,76,0.00,,,0.00,Weather View 32 v70,2013-02-11 19:51:00,
2013-02-11 14:56:00,75.0,67.3,30.08,WSW,246,9.0,14.0,77,0.00,,,0.00,Weather View 32 v70,2013-02-11 19:56:00,
2013-02-11 15:01:00,75.0,67.6,30.08,WSW,253,6.0,14.0,78,0.00,,,0.00,Weather View 32 v70,2013-02-11 20:01:00,
2013-02-11 15:06:00,75.0,67.6,30.08,WSW,258,5.0,14.0,78,0.00,,,0.00,Weather View 32 v70,2013-02-11 20:06:00,
2013-02-11 15:11:00,75.0,67.6,30.08,West,273,7.0,14.0,78,0.00,,,0.00,Weather View 32 v70,2013-02-11 20:11:00,
2013-02-11 15:16:00,76.0,68.6,30.08,WSW,256,5.0,17.0,78,0.00,,,0.00,Weather View 32 v70,2013-02-11 20:16:00,
2013-02-11 15:21:00,75.0,68.0,30.07,WSW,249,11.0,17.0,79,0.00,,,0.00,Weather View 32 v70,2013-02-11 20:21:00,
2013-02-11 15:26:00,76.0,68.6,30.07,WSW,257,8.0,17.0,78,0.00,,,0.00,Weather View 32 v70,2013-02-11 20:26:00,
2013-02-11 15:31:00,76.0,68.2,30.07,West,271,5.0,17.0,77,0.00,,,0.00,Weather View 32 v70,2013-02-11 20:31:00,
2013-02-11 15:36:00,76.0,68.2,30.07,WSW,240,6.0,17.0,77,0.00,,,0.00,Weather View 32 v70,2013-02-11 20:36:00,
2013-02-11 15:41:00,76.0,67.9,30.07,WSW,250,11.0,17.0,76,0.00,,,0.00,Weather View 32 v70,2013-02-11 20:41:00,
2013-02-11 15:46:00,76.0,67.9,30.07,West,276,6.0,17.0,76,0.00,,,0.00,Weather View 32 v70,2013-02-11 20:46:00,
2013-02-11 15:51:00,76.0,68.2,30.07,WSW,249,12.0,17.0,77,0.00,,,0.00,Weather View 32 v70,2013-02-11 20:51:00,
2013-02-11 15:56:00,75.0,67.6,30.06,West,273,9.0,17.0,78,0.00,,,0.00,Weather View 32 v70,2013-02-11 20:56:00,
2013-02-11 16:01:00,75.0,67.6,30.06,WNW,282,10.0,17.0,78,0.00,,,0.00,Weather View 32 v70,2013-02-11 21:01:00,
2013-02-11 16:06:00,75.0,67.6,30.06,WSW,258,12.0,18.0,78,0.00,,,0.00,Weather View 32 v70,2013-02-11 21:06:00,
2013-02-11 16:11:00,76.0,68.6,30.06,WSW,252,9.0,18.0,78,0.00,,,0.00,Weather View 32 v70,2013-02-11 21:11:00,
2013-02-11 16:16:00,76.0,68.6,30.06,WSW,250,11.0,18.0,78,0.00,,,0.00,Weather View 32 v70,2013-02-11 21:16:00,
2013-02-11 16:21:00,75.0,67.6,30.06,WSW,245,9.0,18.0,78,0.00,,,0.00,Weather View 32 v70,2013-02-11 21:21:00,
2013-02-11 16:26:00,75.0,68.0,30.06,WSW,252,7.0,18.0,79,0.00,,,0.00,Weather View 32 v70,2013-02-11 21:26:00,
2013-02-11 16:31:00,75.0,68.4,30.06,WSW,254,10.0,18.0,80,0.00,,,0.00,Weather View 32 v70,2013-02-11 21:31:00,
2013-02-11 16:36:00,75.0,68.4,30.06,WSW,246,10.0,18.0,80,0.00,,,0.00,Weather View 32 v70,2013-02-11 21:36:00,
2013-02-11 16:41:00,75.0,68.4,30.06,SW,233,13.0,18.0,80,0.00,,,0.00,Weather View 32 v70,2013-02-11 21:41:00,
2013-02-11 16:46:00,75.0,68.4,30.06,West,277,5.0,18.0,80,0.00,,,0.00,Weather View 32 v70,2013-02-11 21:46:00,
2013-02-11 16:51:00,75.0,68.4,30.06,WSW,250,12.0,18.0,80,0.00,,,0.00,Weather View 32 v70,2013-02-11 21:51:00,
2013-02-11 16:56:00,75.0,68.4,30.06,WSW,242,10.0,18.0,80,0.00,,,0.00,Weather View 32 v70,2013-02-11 21:56:00,
2013-02-11 17:01:00,75.0,68.4,30.06,West,260,10.0,18.0,80,0.00,,,0.00,Weather View 32 v70,2013-02-11 22:01:00,
2013-02-11 17:06:00,75.0,68.4,30.06,WSW,252,5.0,16.0,80,0.00,,,0.00,Weather View 32 v70,2013-02-11 22:06:00,
2013-02-11 17:11:00,75.0,68.4,30.06,WSW,246,9.0,16.0,80,0.00,,,0.00,Weather View 32 v70,2013-02-11 22:11:00,
2013-02-11 17:16:00,75.0,68.4,30.06,North,0,8.0,16.0,80,0.00,,,0.00,Weather View 32 v70,2013-02-11 22:16:00,
2013-02-11 17:21:00,75.0,68.4,30.06,West,262,4.0,16.0,80,0.00,,,0.00,Weather View 32 v70,2013-02-11 22:21:00,
2013-02-11 17:26:00,75.0,68.7,30.06,SW,232,7.0,16.0,81,0.00,,,0.00,Weather View 32 v70,2013-02-11 22:26:00,
2013-02-11 17:31:00,75.0,68.7,30.06,WSW,250,4.0,16.0,81,0.00,,,0.00,Weather View 32 v70,2013-02-11 22:31:00,
2013-02-11 17:36:00,75.0,68.7,30.06,WSW,256,3.0,16.0,81,0.00,,,0.00,Weather View 32 v70,2013-02-11 22:36:00,
2013-02-11 17:41:00,75.0,68.7,30.06,WSW,256,3.0,13.0,81,0.00,,,0.00,Weather View 32 v70,2013-02-11 22:41:00,
2013-02-11 17:46:00,75.0,68.7,30.06,WSW,249,5.0,13.0,81,0.00,,,0.00,Weather View 32 v70,2013-02-11 22:46:00,
2013-02-11 17:51:00,75.0,68.0,30.06,SW,219,7.0,13.0,79,0.00,,,0.00,Weather View 32 v70,2013-02-11 22:51:00,
2013-02-11 17:56:00,75.0,67.3,30.06,SW,223,7.0,13.0,77,0.00,,,0.00,Weather View 32 v70,2013-02-11 22:56:00,
2013-02-11 18:01:00,75.0,67.3,30.06,SW,229,7.0,13.0,77,0.00,,,0.00,Weather View 32 v70,2013-02-11 23:01:00,
2013-02-11 18:06:00,75.0,67.3,30.06,West,260,7.0,12.0,77,0.00,,,0.00,Weather View 32 v70,2013-02-11 23:06:00,
2013-02-11 18:11:00,75.0,67.3,30.07,WSW,238,8.0,12.0,77,0.00,,,0.00,Weather View 32 v70,2013-02-11 23:11:00,
2013-02-11 18:16:00,74.0,66.7,30.06,SW,219,5.0,12.0,78,0.00,,,0.00,Weather View 32 v70,2013-02-11 23:16:00,
2013-02-11 18:21:00,74.0,66.7,30.07,SW,223,9.0,12.0,78,0.00,,,0.00,Weather View 32 v70,2013-02-11 23:21:00,
2013-02-11 18:26:00,74.0,66.7,30.07,SSW,198,8.0,12.0,78,0.00,,,0.00,Weather View 32 v70,2013-02-11 23:26:00,
2013-02-11 18:31:00,74.0,67.0,30.07,SW,218,1.0,12.0,79,0.00,,,0.00,Weather View 32 v70,2013-02-11 23:31:00,
2013-02-11 18:36:00,74.0,67.4,30.07,SSW,196,7.0,12.0,80,0.00,,,0.00,Weather View 32 v70,2013-02-11 23:36:00,
2013-02-11 18:41:00,73.0,66.8,30.07,SW,232,4.0,12.0,81,0.00,,,0.00,Weather View 32 v70,2013-02-11 23:41:00,
2013-02-11 18:46:00,73.0,66.8,30.07,South,188,4.0,12.0,81,0.00,,,0.00,Weather View 32 v70,2013-02-11 23:46:00,
2013-02-11 18:51:00,73.0,66.8,30.07,SSW,194,5.0,12.0,81,0.00,,,0.00,Weather View 32 v70,2013-02-11 23:51:00,
2013-02-11 18:56:00,73.0,67.2,30.07,SW,229,7.0,12.0,82,0.00,,,0.00,Weather View 32 v70,2013-02-11 23:56:00,
2013-02-11 19:01:00,72.0,66.2,30.07,SW,219,3.0,12.0,82,0.00,,,0.00,Weather View 32 v70,2013-02-12 00:01:00,
2013-02-11 19:06:00,72.0,66.5,30.07,SW,217,1.0,12.0,83,0.00,,,0.00,Weather View 32 v70,2013-02-12 00:06:00,
2013-02-11 19:11:00,72.0,66.2,30.07,South,184,2.0,12.0,82,0.00,,,0.00,Weather View 32 v70,2013-02-12 00:11:00,
2013-02-11 19:16:00,72.0,66.5,30.07,SW,219,5.0,12.0,83,0.00,,,0.00,Weather View 32 v70,2013-02-12 00:16:00,
2013-02-11 19:21:00,72.0,66.5,30.07,SW,217,4.0,12.0,83,0.00,,,0.00,Weather View 32 v70,2013-02-12 00:21:00,
2013-02-11 19:26:00,72.0,66.5,30.08,SW,221,3.0,12.0,83,0.00,,,0.00,Weather View 32 v70,2013-02-12 00:26:00,
2013-02-11 19:31:00,72.0,66.5,30.07,SW,225,5.0,10.0,83,0.00,,,0.00,Weather View 32 v70,2013-02-12 00:31:00,
2013-02-11 19:36:00,72.0,66.9,30.08,WSW,242,4.0,10.0,84,0.00,,,0.00,Weather View 32 v70,2013-02-12 00:36:00,
2013-02-11 19:41:00,72.0,66.9,30.08,SW,231,4.0,10.0,84,0.00,,,0.00,Weather View 32 v70,2013-02-12 00:41:00,
2013-02-11 19:46:00,72.0,67.2,30.08,WSW,240,4.0,10.0,85,0.00,,,0.00,Weather View 32 v70,2013-02-12 00:46:00,
2013-02-11 19:51:00,71.0,66.2,30.08,WSW,242,4.0,10.0,85,0.00,,,0.00,Weather View 32 v70,2013-02-12 00:51:00,
2013-02-11 19:56:00,71.0,66.2,30.08,SW,230,3.0,10.0,85,0.00,,,0.00,Weather View 32 v70,2013-02-12 00:56:00,
2013-02-11 20:01:00,71.0,66.2,30.08,SW,232,1.0,10.0,85,0.00,,,0.00,Weather View 32 v70,2013-02-12 01:01:00,
2013-02-11 20:06:00,71.0,66.2,30.08,SW,219,2.0,10.0,85,0.00,,,0.00,Weather View 32 v70,2013-02-12 01:06:00,
2013-02-11 20:11:00,71.0,66.2,30.08,SSW,200,1.0,10.0,85,0.00,,,0.00,Weather View 32 v70,2013-02-12 01:11:00,
2013-02-11 20:16:00,71.0,66.6,30.08,SSW,200,1.0,10.0,86,0.00,,,0.00,Weather View 32 v70,2013-02-12 01:16:00,
2013-02-11 20:21:00,70.0,65.6,30.09,SSW,194,0.0,10.0,86,0.00,,,0.00,Weather View 32 v70,2013-02-12 01:21:00,
2013-02-11 20:26:00,70.0,65.6,30.08,SSW,194,2.0,9.0,86,0.00,,,0.00,Weather View 32 v70,2013-02-12 01:26:00,
2013-02-11 20:32:00,70.0,65.6,30.09,SSW,194,1.0,9.0,86,0.00,,,0.00,Weather View 32 v70,2013-02-12 01:32:00,
2013-02-11 20:36:00,70.0,65.6,30.09,South,186,0.0,9.0,86,0.00,,,0.00,Weather View 32 v70,2013-02-12 01:36:00,
2013-02-11 20:42:00,70.0,65.9,30.09,South,186,0.0,7.0,87,0.00,,,0.00,Weather View 32 v70,2013-02-12 01:42:00,
2013-02-11 20:46:00,69.0,65.0,30.09,South,186,0.0,7.0,87,0.00,,,0.00,Weather View 32 v70,2013-02-12 01:46:00,
2013-02-11 20:51:00,69.0,65.0,30.09,South,186,0.0,6.0,87,0.00,,,0.00,Weather View 32 v70,2013-02-12 01:51:00,
2013-02-11 20:57:00,69.0,65.0,30.09,South,186,0.0,6.0,87,0.00,,,0.00,Weather View 32 v70,2013-02-12 01:57:00,
2013-02-11 21:02:00,69.0,65.3,30.09,South,186,0.0,4.0,88,0.00,,,0.00,Weather View 32 v70,2013-02-12 02:02:00,
2013-02-11 21:07:00,68.0,64.3,30.09,South,186,0.0,3.0,88,0.00,,,0.00,Weather View 32 v70,2013-02-12 02:07:00,
2013-02-11 21:12:00,68.0,64.3,30.09,South,190,0.0,3.0,88,0.00,,,0.00,Weather View 32 v70,2013-02-12 02:12:00,
2013-02-11 21:17:00,68.0,64.3,30.09,SSW,198,3.0,3.0,88,0.00,,,0.00,Weather View 32 v70,2013-02-12 02:17:00,
2013-02-11 21:22:00,68.0,64.6,30.09,SSW,198,3.0,4.0,89,0.00,,,0.00,Weather View 32 v70,2013-02-12 02:22:00,
2013-02-11 21:27:00,68.0,64.6,30.09,SSW,198,2.0,4.0,89,0.00,,,0.00,Weather View 32 v70,2013-02-12 02:27:00,
2013-02-11 21:32:00,68.0,64.6,30.09,SSW,198,0.0,4.0,89,0.00,,,0.00,Weather View 32 v70,2013-02-12 02:32:00,
2013-02-11 21:37:00,68.0,64.6,30.09,SSW,209,0.0,4.0,89,0.00,,,0.00,Weather View 32 v70,2013-02-12 02:37:00,
2013-02-11 21:42:00,68.0,64.6,30.10,SSW,209,1.0,4.0,89,0.00,,,0.00,Weather View 32 v70,2013-02-12 02:42:00,
2013-02-11 21:47:00,68.0,64.6,30.09,SSW,207,0.0,4.0,89,0.00,,,0.00,Weather View 32 v70,2013-02-12 02:47:00,
2013-02-11 21:52:00,68.0,64.6,30.09,SSW,207,1.0,4.0,89,0.00,,,0.00,Weather View 32 v70,2013-02-12 02:52:00,
2013-02-11 21:57:00,68.0,64.6,30.10,SSW,207,0.0,4.0,89,0.00,,,0.00,Weather View 32 v70,2013-02-12 02:57:00,
2013-02-11 22:02:00,68.0,64.6,30.10,SSW,207,0.0,4.0,89,0.00,,,0.00,Weather View 32 v70,2013-02-12 03:02:00,
2013-02-11 22:07:00,68.0,64.6,30.09,SSW,207,0.0,4.0,89,0.00,,,0.00,Weather View 32 v70,2013-02-12 03:07:00,
2013-02-11 22:12:00,68.0,64.6,30.10,SSW,207,0.0,4.0,89,0.00,,,0.00,Weather View 32 v70,2013-02-12 03:12:00,
2013-02-11 22:17:00,67.0,63.6,30.10,SSW,207,0.0,4.0,89,0.00,,,0.00,Weather View 32 v70,2013-02-12 03:17:00,
2013-02-11 22:22:00,67.0,63.6,30.09,SSW,207,0.0,4.0,89,0.00,,,0.00,Weather View 32 v70,2013-02-12 03:22:00,
2013-02-11 22:27:00,67.0,63.6,30.09,SSW,207,0.0,4.0,89,0.00,,,0.00,Weather View 32 v70,2013-02-12 03:27:00,
2013-02-11 22:32:00,67.0,64.0,30.09,SSW,207,0.0,4.0,90,0.00,,,0.00,Weather View 32 v70,2013-02-12 03:32:00,
2013-02-11 22:37:00,67.0,63.6,30.09,SSW,207,0.0,4.0,89,0.00,,,0.00,Weather View 32 v70,2013-02-12 03:37:00,
2013-02-11 22:42:00,66.0,62.7,30.09,SSW,207,0.0,3.0,89,0.00,,,0.00,Weather View 32 v70,2013-02-12 03:42:00,
2013-02-11 22:47:00,66.0,63.0,30.09,SSW,207,0.0,3.0,90,0.00,,,0.00,Weather View 32 v70,2013-02-12 03:47:00,
2013-02-11 22:52:00,66.0,63.0,30.09,SSW,207,0.0,2.0,90,0.00,,,0.00,Weather View 32 v70,2013-02-12 03:52:00,
2013-02-11 22:57:00,66.0,63.0,30.09,SSW,207,0.0,2.0,90,0.00,,,0.00,Weather View 32 v70,2013-02-12 03:57:00,
2013-02-11 23:02:00,66.0,63.0,30.09,SSW,207,1.0,2.0,90,0.00,,,0.00,Weather View 32 v70,2013-02-12 04:02:00,
2013-02-11 23:07:00,66.0,63.0,30.09,SSW,207,0.0,2.0,90,0.00,,,0.00,Weather View 32 v70,2013-02-12 04:07:00,
2013-02-11 23:12:00,66.0,63.0,30.09,SSW,207,2.0,2.0,90,0.00,,,0.00,Weather View 32 v70,2013-02-12 04:12:00,
2013-02-11 23:17:00,66.0,63.0,30.09,SSW,205,1.0,3.0,90,0.00,,,0.00,Weather View 32 v70,2013-02-12 04:17:00,
2013-02-11 23:22:00,66.0,63.0,30.09,South,188,1.0,3.0,90,0.00,,,0.00,Weather View 32 v70,2013-02-12 04:22:00,
2013-02-11 23:27:00,66.0,63.0,30.09,South,188,0.0,3.0,90,0.00,,,0.00,Weather View 32 v70,2013-02-12 04:27:00,
2013-02-11 23:32:00,66.0,63.0,30.09,South,180,1.0,5.0,90,0.00,,,0.00,Weather View 32 v70,2013-02-12 04:32:00,
2013-02-11 23:37:00,66.0,63.0,30.09,South,180,2.0,5.0,90,0.00,,,0.00,Weather View 32 v70,2013-02-12 04:37:00,
2013-02-11 23:42:00,66.0,63.0,30.09,South,179,0.0,5.0,90,0.00,,,0.00,Weather View 32 v70,2013-02-12 04:42:00,
2013-02-11 23:47:00,66.0,63.0,30.09,SSW,194,1.0,5.0,90,0.00,,,0.00,Weather View 32 v70,2013-02-12 04:47:00,
2013-02-11 23:52:00,66.0,63.0,30.09,South,171,0.0,6.0,90,0.00,,,0.00,Weather View 32 v70,2013-02-12 04:52:00,
2013-02-11 23:57:00,66.0,63.0,30.09,South,171,0.0,6.0,90,0.00,,,0.00,Weather View 32 v70,2013-02-12 04:57:00,